Regional Weather Roundup
Issued by NWS Lake Charles, LA

Home | Current Version | Previous Version | Text Only | Print | Product List | Glossary On
Versions: 1 2 3 4 5 6 7 8 9 10 11 12 13 14 15 16 17 18 19 20 21 22 23 24 25 26 27 28 29 30 31 32 33 34 35 36 37 38 39 40 41 42 43 44 45 46 47 48 49 50
000
ASUS44 KLCH 012010
RWRLCH
RWRLCH
REGIONAL WEATHER ROUNDUP
NATIONAL WEATHER SERVICE LAKE CHARLES LA
300 PM CDT SAT AUG 01 2015

Note: "fair" indicates few or no clouds below 12,000 feet with no
significant weather and/or obstructions to visibility.


ACROSS SOUTHEAST TEXAS

CITY           SKY/WX    TMP DP  RH WIND       PRES   REMARKS
BEAUMONT       SUNNY     97  64  33 N7        29.91F
BEAUMONT CITY    N/A     94  65  38 N12       29.93F
ORANGE         CLEAR     95  52  23 N9        29.94F
JASPER         SUNNY     96  61  30 NE9       29.97F
$$

ACROSS CENTRAL LOUISIANA

CITY           SKY/WX    TMP DP  RH WIND       PRES   REMARKS
LEESVILLE      SUNNY     93  59  31 E10       29.94F
FULLERTON        N/A     94  60  32 VRB6      29.93F
ALEXANDRIA INT SUNNY     95  61  32 N8        29.93F
ESLER FIELD    SUNNY     96  62  32 NE10      29.95F
DERIDDER         N/A     93  60  33 N10       29.96F
OAKDALE        CLEAR     94  63  35 NE7       29.93F
OPELOUSAS        N/A     92  61  36 N9G20     29.93F
$$

ACROSS SOUTHWEST AND SOUTH CENTRAL LOUISIANA

CITY           SKY/WX    TMP DP  RH WIND       PRES   REMARKS
SULPHUR        CLEAR     96  62  32 NE6       29.93F
LAKE CHARLES   SUNNY     94  64  37 E12       29.92F
CHENNAULT INT  NOT AVBL
CAMERON PHI    PTCLDY    91  64  40 N10G17    29.95F
DEQUINCY         N/A     94  60  31 N8        29.93F
JENNINGS         N/A     93  62  35 N10       29.92F
LAFAYETTE      SUNNY     94  60  32 NE14      29.92F
NEW IBERIA     SUNNY     94  60  32 NE10      29.92F
ABBEVILLE        N/A     93  62  35 N10G20    29.91F
PATTERSON      SUNNY     91  66  43 N9        29.91F
SALT POINT       N/A     93  62  35 MISG      29.89F
$$

SELECTED SITES ACROSS THE REGION

CITY           SKY/WX    TMP DP  RH WIND       PRES   REMARKS
HOUSTON BUSH   PTSUNNY   96  64  34 E13       29.94F
HOUSTON HOBBY  PTSUNNY   96  59  29 N15       29.92F
GALVESTON      SUNNY     94  64  37 E9        29.93F
COLLEGE STAT   SUNNY     96  59  29 E6        29.95F
CONROE         MOSUNNY   96  59  29 N13       29.95F
HUNTSVILLE     SUNNY     95  60  31 E6        29.96F
LUFKIN         SUNNY     94  61  33 NE8       29.97F
SHREVEPORT     MOSUNNY   96  58  27 SE12      29.98F
MONROE         SUNNY     94  61  33 E13G18    29.98F
NATCHEZ MS     SUNNY     90  64  43 N13       29.96F
BATON ROUGE    SUNNY     94  61  33 NE12G23   29.92F
N.O. INTL ARPT MOSUNNY   91  69  48 N12       29.89F
SLIDELL        SUNNY     93  70  46 N9        29.88F
$$

MARINE REPORTS

STATION/POSITION TIME  TEMP    WIND        PRES    VSBY  WAVE
                       AIR SEA DIR/SP/G                  HT/PER
                 (UTC) (F)     (DEG/KT/KT) (MB)    (MI)  (FT/S)
BUOY 30 S HIGH I 1950   86 87   60/ 12/ 14 1012.8F         3/ 5
SEA RIM ST PARK  2000   92      60/  8/ 14 1013.7F
PORT ARTHUR      1900      88  110/  3/  6 1013.9F
SABINE PASS N    1900   90 87   90/  6/ 11 1013.9F
TEXAS POINT      NOT AVBL
CALCASIEU PASS   1900   89 87   10/  9/ 13 1013.0F
LK CHARLES BEACH 1900   91 88                N/A
MARSH ISLAND     1900   88      20/  8/ 11   N/A           0
FRESH WATER LOCK 1900   90 87   30/  8/ 12 1013.3F
AMERADA PASS     1900   89 87  350/  2/  6 1012.9F
$$



USA.gov is the U.S. government's official web portal to all federal, state and local government web resources and services.